Location: Daytona Beach
(29.2106°N, 81.0231°W)
Time: 17:45:29
(UTC-04:00)

RS-15 - Pass Details

Date: 26 September 2021
Orbit: 1884 x 2160 km, 64.8° (Epoch: 26 October)

Event Time Altitude Azimuth Distance (km) Brightness Sun altitude
Rises 22:18:22 0° 337° (NNW) 5,596 11.0 -39.8°
Reaches altitude 10° 22:27:15 10° 14° (NNE) 4,652 10.1 -41.5°
Maximum altitude 22:29:29 11° 25° (NNE) 4,615 10.0 -42.0°
Drops below altitude 10° 22:31:43 10° 36° (NE) 4,670 9.9 -42.4°
Enters shadow 22:32:53 - 42° (NE) 4,735 9.9 -42.6°
